TimeEDT,TemperatureF,Dew PointF,Humidity,Sea Level PressureIn,VisibilityMPH,Wind Direction,Wind SpeedMPH,Gust SpeedMPH,PrecipitationIn,Events,Conditions,WindDirDegrees,DateUTC
12:51 AM,60.1,55.0,83,29.88,10.0,Calm,Calm,-,N/A,,Partly Cloudy,0,2013-06-15 04:51:00
1:51 AM,59.0,54.0,83,29.90,10.0,NNW,3.5,-,N/A,,Partly Cloudy,340,2013-06-15 05:51:00
2:51 AM,57.9,53.1,84,29.91,10.0,Calm,Calm,-,N/A,,Clear,0,2013-06-15 06:51:00
3:51 AM,57.9,52.0,81,29.92,10.0,Variable,4.6,-,N/A,,Clear,0,2013-06-15 07:51:00
4:51 AM,57.0,52.0,83,29.93,10.0,WNW,9.2,-,N/A,,Partly Cloudy,290,2013-06-15 08:51:00
5:51 AM,54.0,50.0,86,29.94,10.0,ENE,3.5,-,N/A,,Partly Cloudy,70,2013-06-15 09:51:00
6:51 AM,57.9,52.0,81,29.96,10.0,Calm,Calm,-,N/A,,Partly Cloudy,0,2013-06-15 10:51:00
7:51 AM,63.0,53.1,70,29.97,10.0,West,3.5,-,N/A,,Clear,280,2013-06-15 11:51:00
8:51 AM,66.0,51.1,59,29.99,10.0,WNW,3.5,-,N/A,,Clear,290,2013-06-15 12:51:00
9:51 AM,69.1,48.9,49,29.99,10.0,NNE,3.5,-,N/A,,Clear,30,2013-06-15 13:51:00
10:51 AM,70.0,46.0,42,29.98,10.0,Calm,Calm,-,N/A,,Partly Cloudy,0,2013-06-15 14:51:00
11:51 AM,73.0,48.9,42,29.98,10.0,WSW,12.7,-,N/A,,Partly Cloudy,250,2013-06-15 15:51:00
12:51 PM,73.9,44.1,34,29.97,10.0,West,13.8,21.9,N/A,,Partly Cloudy,270,2013-06-15 16:51:00
1:51 PM,75.9,46.0,35,29.95,10.0,WNW,15.0,23.0,N/A,,Scattered Clouds,290,2013-06-15 17:51:00
2:51 PM,75.9,44.1,32,29.94,10.0,WNW,15.0,26.5,N/A,,Scattered Clouds,290,2013-06-15 18:51:00
3:51 PM,75.9,45.0,33,29.93,10.0,WNW,12.7,24.2,N/A,,Scattered Clouds,290,2013-06-15 19:51:00
4:51 PM,75.9,44.1,32,29.92,10.0,West,13.8,19.6,N/A,,Scattered Clouds,270,2013-06-15 20:51:00
5:51 PM,75.0,43.0,32,29.92,10.0,West,16.1,-,N/A,,Scattered Clouds,270,2013-06-15 21:51:00
6:51 PM,73.9,43.0,33,29.92,10.0,WNW,15.0,23.0,N/A,,Partly Cloudy,290,2013-06-15 22:51:00
7:51 PM,71.1,42.1,35,29.94,10.0,WNW,11.5,-,N/A,,Partly Cloudy,300,2013-06-15 23:51:00
8:51 PM,66.9,43.0,42,29.94,10.0,WNW,6.9,-,N/A,,Partly Cloudy,300,2013-06-16 00:51:00
9:51 PM,66.0,41.0,40,29.97,10.0,WNW,9.2,-,N/A,,Partly Cloudy,300,2013-06-16 01:51:00
10:51 PM,63.0,39.0,41,29.96,10.0,West,6.9,-,N/A,,Partly Cloudy,270,2013-06-16 02:51:00
11:51 PM,57.9,44.1,60,29.97,10.0,SSW,3.5,-,N/A,,Partly Cloudy,200,2013-06-16 03:51:00